SCP
0 0 0 0 0 0 0 -0 -0 -0 -0 -0 -0 -0 -0 0 0 0 0 -0 0 0
0 0 0 0 0 0 -0 -0 0 -0 -0 -0 -0 -0 -0 0 0 0 0 0 -0 0
0 0 0 0 0 0 -0 -0 -0 -0 -0 -0 -0 -0 0 0 0 0 0 0 0 0
0 0 0 0 0 0 0 0 0 0 -0 -0 -0 -0 0 0 -0 0 0 0 0 0
0 0 0 0 0 0 0 0 0 0 0 0 0 0 0 -0 -0 0 0 0 0 0
0 0 0 0 0 0 0 0 0 0 0 0 0 0 0 -0 -0 -0 0 0 0 0
0 0 0 0 0 0 0 0 0 0 0 0 0 0 0 0 0 -0 0 0 0 0
0 1 0 0 0 0 0 0 0 0 0 0 0 0 0 0 0 -0 0 0 0 0
1 0 0 0 0 0 0 0 0 0 0 0 0 0 0 0 0 0 0 0 0 0
1 0 0 0 0 0 0 0 0 0 0 0 0 0 0 0 0 0 0 0 0 0
0 0 0 0 0 0 0 0 0 0 0 0 0 0 0 0 0 0 0 0 0 0
0 0 0 0 0 0 0 0 0 0 0 0 0 0 0 0 0 0 0 0 0 0
0 0 0 0 0 0 0 0 0 0 0 0 -0 0 0 -0 -0 -0 0 0 0 0
0 0 0 0 0 0 0 0 0 0 0 0 -0 -0 0 0 0 0 0 0 0 0
Wind_Speed_500mb
12 9 3 2 4 2 11 24 26 32 34 32 31 34 38 39 44 43 35 30 19 19
17 12 2 4 4 8 16 22 28 36 40 35 33 28 31 37 46 39 37 32 27 21
20 10 18 13 15 18 28 30 24 26 38 37 37 28 22 32 39 43 44 35 33 29
18 16 17 11 12 17 25 22 28 28 36 38 36 33 26 35 45 43 36 27 31 33
19 16 13 4 3 9 16 22 32 28 34 39 34 36 28 45 50 46 39 29 26 29
22 17 5 12 9 14 24 30 29 28 30 35 36 38 34 51 51 46 41 32 26 24
20 14 13 12 18 23 28 26 28 23 25 30 33 35 38 46 48 51 46 32 29 29
17 12 11 13 24 29 30 27 26 27 32 31 32 29 35 39 49 56 55 35 23 26
10 10 17 20 27 27 26 28 29 31 30 31 29 28 34 45 49 47 43 36 35 38
7 16 20 26 25 25 29 32 33 34 37 40 41 41 41 39 35 34 33 39 47 40
4 11 26 34 31 30 31 33 33 30 21 28 32 36 34 32 37 42 47 49 45 44
7 20 16 37 32 33 31 24 22 24 27 31 28 28 35 41 47 53 57 56 51 41
12 11 26 25 30 25 17 20 20 20 21 25 33 42 52 57 57 56 53 49 48 43
5 16 22 17 6 12 10 8 11 10 14 27 40 47 48 50 52 53 55 57 57 53
Wind_Direction_500mb
137 137 85 12 360 331 332 323 340 10 5 359 353 347 352 358 355 354 348 355 346 286
172 171 223 50 51 20 19 32 18 10 3 357 352 347 351 1 8 2 4 3 351 345
176 169 134 89 48 26 21 20 2 356 355 1 1 2 353 360 1 3 8 3 358 357
119 109 98 55 19 360 355 347 346 346 349 356 5 9 2 358 351 346 348 349 2 5
146 125 82 38 360 345 318 321 331 334 351 356 1 355 360 351 352 355 357 351 343 343
144 124 152 162 198 285 307 319 335 333 340 343 357 348 344 346 347 351 353 351 353 2
141 182 223 260 296 315 322 322 330 333 332 334 339 340 334 340 336 343 347 343 337 342
190 215 254 302 319 322 325 333 334 330 335 338 335 335 327 329 333 336 341 347 339 338
231 269 291 322 325 320 328 327 327 330 325 327 333 329 323 324 332 341 344 338 331 326
247 299 320 323 313 315 319 319 320 320 324 319 316 320 327 336 345 346 336 335 333 330
208 358 351 317 307 308 318 322 326 343 14 353 348 345 344 343 334 328 328 326 326 322
232 345 326 282 304 318 330 356 27 38 358 350 351 349 337 330 325 322 321 318 316 318
283 291 270 297 315 328 24 39 36 24 16 351 336 334 336 334 333 330 331 329 327 326
252 278 295 317 48 56 52 40 4 39 347 330 334 339 341 341 340 338 341 343 344 340
Wind_Speed_850mb
12 9 3 2 4 2 11 24 26 32 34 32 31 34 38 39 44 43 35 30 19 19
17 12 2 4 4 8 16 22 28 36 40 35 33 28 31 37 46 39 37 32 27 21
20 10 18 13 15 18 28 30 24 26 38 37 37 28 22 32 39 43 44 35 33 29
18 16 17 11 12 17 25 22 28 28 36 38 36 33 26 35 45 43 36 27 31 33
19 16 13 4 3 9 16 22 32 28 34 39 34 36 28 45 50 46 39 29 26 29
22 17 5 12 9 14 24 30 29 28 30 35 36 38 34 51 51 46 41 32 26 24
20 14 13 12 18 23 28 26 28 23 25 30 33 35 38 46 48 51 46 32 29 29
17 12 11 13 24 29 30 27 26 27 32 31 32 29 35 39 49 56 55 35 23 26
10 10 17 20 27 27 26 28 29 31 30 31 29 28 34 45 49 47 43 36 35 38
7 16 20 26 25 25 29 32 33 34 37 40 41 41 41 39 35 34 33 39 47 40
4 11 26 34 31 30 31 33 33 30 21 28 32 36 34 32 37 42 47 49 45 44
7 20 16 37 32 33 31 24 22 24 27 31 28 28 35 41 47 53 57 56 51 41
12 11 26 25 30 25 17 20 20 20 21 25 33 42 52 57 57 56 53 49 48 43
5 16 22 17 6 12 10 8 11 10 14 27 40 47 48 50 52 53 55 57 57 53
Wind_Direction_850mb
137 137 85 12 360 331 332 323 340 10 5 359 353 347 352 358 355 354 348 355 346 286
172 171 223 50 51 20 19 32 18 10 3 357 352 347 351 1 8 2 4 3 351 345
176 169 134 89 48 26 21 20 2 356 355 1 1 2 353 360 1 3 8 3 358 357
119 109 98 55 19 360 355 347 346 346 349 356 5 9 2 358 351 346 348 349 2 5
146 125 82 38 360 345 318 321 331 334 351 356 1 355 360 351 352 355 357 351 343 343
144 124 152 162 198 285 307 319 335 333 340 343 357 348 344 346 347 351 353 351 353 2
141 182 223 260 296 315 322 322 330 333 332 334 339 340 334 340 336 343 347 343 337 342
190 215 254 302 319 322 325 333 334 330 335 338 335 335 327 329 333 336 341 347 339 338
231 269 291 322 325 320 328 327 327 330 325 327 333 329 323 324 332 341 344 338 331 326
247 299 320 323 313 315 319 319 320 320 324 319 316 320 327 336 345 346 336 335 333 330
208 358 351 317 307 308 318 322 326 343 14 353 348 345 344 343 334 328 328 326 326 322
232 345 326 282 304 318 330 356 27 38 358 350 351 349 337 330 325 322 321 318 316 318
283 291 270 297 315 328 24 39 36 24 16 351 336 334 336 334 333 330 331 329 327 326
252 278 295 317 48 56 52 40 4 39 347 330 334 339 341 341 340 338 341 343 344 340